Regional Weather Roundup
Issued by NWS Kansas City/Pleasant Hill, MO

Home | Current Version | Previous Version | Text Only | Print | Product List | Glossary On
Versions: 1 2 3 4 5 6 7 8 9 10 11 12 13 14 15 16 17 18 19 20 21 22 23 24 25 26 27 28 29 30 31 32 33 34 35 36 37 38 39 40 41 42 43 44 45 46 47 48 49 50
000
ASUS43 KEAX 211811
RWREAX

WEATHER ROUNDUP FOR EASTERN KANSAS AND NORTHWEST MISSOURI
NATIONAL WEATHER SERVICE KANSAS CITY/PLEASANT HILL MO
100 PM CDT THU AUG 21 2014

KSZ040-057-103>105-MOZ028-029-037-043-211900-
...KANSAS CITY METROPOLITAN AREA...

CITY           SKY/WX    TMP DP  RH WIND       PRES   REMARKS
K.C. INTL      CLOUDY    88  74  63 S13       29.91F HX  96
6HR MIN TEMP:  77; 6HR MAX TEMP:  88;

K.C. DOWNTOWN  PTSUNNY   92  73  53 S16       29.90F HX 100
6HR MIN TEMP:  80; 6HR MAX TEMP:  92;

LEES SUMMIT    MOSUNNY   88  72  58 SW15G23   29.94F HX  94
6HR MIN TEMP:  76; 6HR MAX TEMP:  88;

OLATHE - IXD   MOSUNNY   92  70  48 S21       29.94S HX  97
6HR MIN TEMP:  77; 6HR MAX TEMP:  92;

OLATHE - OJC   PTSUNNY   89  72  56 S15       29.93F HX  96
6HR MIN TEMP:  76; 6HR MAX TEMP:  90;

LAWRENCE       MOSUNNY   96  71  44 SW16G22   29.90F HX 103

$$

MOZ001>008-011>017-020>025-030>033-038>040-044>046-053-054-211900-
...NORTHERN AND CENTRAL MISSOURI...

CITY           SKY/WX    TMP DP  RH WIND       PRES   REMARKS
ST. JOSEPH     PTSUNNY   87  75  67 S12       29.88F HX  96
6HR MIN TEMP:  76; 6HR MAX TEMP:  88;

MOSBY          MOCLDY    86  72  62 S10       29.91S HX  92
WHITEMAN AFB   MOSUNNY   89  69  50 SW17      29.94F HX  93
6HR MIN TEMP:  73; 6HR MAX TEMP:  89;

CLINTON        SUNNY     91  75  59 SW7G18    29.97S HX 102
SEDALIA        MOSUNNY   90  73  57 SW12      29.97F HX  98
6HR MIN TEMP:  77; 6HR MAX TEMP:  90;

WARSAW         NOT AVBL
MARSHALL       MOSUNNY   91  77  62 SW13G20   29.95S HX 105
CHILLICOTHE      N/A     87  76  69 S8        29.91F HX  97
6HR MIN TEMP:  75; 6HR MAX TEMP:  88;

MOBERLY        SUNNY     90  72  55 SW13G20   29.96S HX  96
KIRKSVILLE     SUNNY     88  74  63 SW10      29.93F HX  96
6HR MIN TEMP:  73; 6HR MAX TEMP:  88;


$$

MOZ041-047>049-056>058-063>065-088>090-097-211900-
...EASTERN AND SOUTHERN MISSOURI...

CITY           SKY/WX    TMP DP  RH WIND       PRES   REMARKS
ST. LOUIS INTL PTSUNNY   92  74  55 SW9       30.00F HX 101
6HR MIN TEMP:  76; 6HR MAX TEMP:  92;

SPIRIT OF STL  PTSUNNY   90  74  59 SW10      29.97F HX  99
COLUMBIA       SUNNY     91  73  55 SW17      29.98F HX  99
JEFFERSON CITY MOSUNNY   91  72  53 SW13G21   29.97S HX  98
MEXICO         SUNNY     90  79  70 SW12      29.96F HX 105
HANNIBAL       SUNNY     91  72  52 SW10      29.95F HX  98
ROLLA          MOSUNNY   89  72  56 SW13G18   30.01F HX  96
LEBANON        PTSUNNY   95  64  36 SW14G21   30.03F HX  97
OSAGE BEACH    PTSUNNY   91  72  52 SW10      29.99F HX  98
SPRINGFIELD    SUNNY     94  68  42 SW16      30.02F HX  98
BRANSON        MOSUNNY   95  66  38 SW8       30.07F HX  98
NEVADA         SUNNY     93  72  49 SW12G17   29.98S HX 100
JOPLIN         SUNNY     94  71  47 SW14      29.99F HX 101
WEST PLAINS    MOSUNNY   89  70  53 SW9       30.08F HX  94

$$

IAZ060-094-KSZ022-034>040-054-083-096-NEZ052-066-093-211900-
...KANSAS...SOUTHEAST NEBRASKA AND IOWA...

CITY           SKY/WX    TMP DP  RH WIND       PRES   REMARKS
TOPEKA         SUNNY     94  71  47 S14G24    29.88F HX 101
6HR MIN TEMP:  79; 6HR MAX TEMP:  94;

MANHATTAN      SUNNY     96  68  39 S15G22    29.85F HX 101
EMPORIA        SUNNY     94  68  42 S20G30    29.91F HX  98
CHANUTE        SUNNY     94  70  45 S20G25    29.95F HX 100
WICHITA        SUNNY     95  67  39 S22       29.90F HX  99
OMAHA          PTSUNNY   85  69  58 S12       29.82S
LINCOLN        PTSUNNY   84  69  60 SW13      29.83R
FALLS CITY     PTSUNNY   92  70  48 S7        29.85F HX  97
LAMONI         CLOUDY    84  73  69 SW9       29.91S HX  90
DES MOINES     CLOUDY    83  73  72 S9G17     29.88S

$$



USA.gov is the U.S. government's official web portal to all federal, state and local government web resources and services.